User: anonymous   Login
Location: Unspecified
(0.0000°N, 0.0000°E)
Time: 17:19:47
(UTC+00:00)
Language:

GONETS M 09 (M19) - Orbit

View from above orbital plane
View from above orbital plane
View from above satellite
View from above satellite

Ground track
Ground track

The orbit data is extracted from the following two-line orbital elements,

1 40062U 14036B   18112.75798714 +.00000057 +00000-0 +33710-3 0  9996
2 40062 082.5148 356.8555 0021833 165.2620 194.9101 12.42890730172571
Epoch (UTC): 22 April 2018 18:11:30
Eccentricity: 0.0021833
inclination: 82.5148°
perigee height: 1477 km
apogee height: 1511 km
right ascension of ascending node: 356.8555°
argument of perigee: 165.2620°
revolutions per day: 12.42890730
mean anomaly at epoch: 194.9101°
orbit number at epoch: 17257

The dashed part of the orbit path shows where the satellite is in the earth's shadow,  

DLR